TimeEST,TemperatureF,Dew PointF,Humidity,Sea Level PressureIn,VisibilityMPH,Wind Direction,Wind SpeedMPH,Gust SpeedMPH,PrecipitationIn,Events,Conditions,WindDirDegrees,DateUTC
12:53 AM,73.9,59.0,59,30.19,10.0,East,16.1,24.2,N/A,,Mostly Cloudy,80,2012-11-11 05:53:00
1:53 AM,75.0,55.0,50,30.17,10.0,East,16.1,25.3,N/A,,Overcast,90,2012-11-11 06:53:00
2:53 AM,73.9,54.0,50,30.16,10.0,East,13.8,24.2,N/A,,Mostly Cloudy,100,2012-11-11 07:53:00
3:53 AM,75.0,53.1,46,30.16,10.0,East,12.7,-,N/A,,Overcast,80,2012-11-11 08:53:00
4:53 AM,73.9,54.0,50,30.17,10.0,East,11.5,-,N/A,,Mostly Cloudy,100,2012-11-11 09:53:00
5:53 AM,75.0,59.0,57,30.18,10.0,East,15.0,-,N/A,,Overcast,80,2012-11-11 10:53:00
6:53 AM,73.9,61.0,64,30.19,10.0,East,17.3,27.6,0.00,Rain,Light Rain,90,2012-11-11 11:53:00
7:53 AM,75.9,57.9,54,30.21,10.0,East,17.3,-,0.00,,Mostly Cloudy,100,2012-11-11 12:53:00
8:53 AM,78.1,55.9,46,30.22,10.0,East,17.3,25.3,N/A,,Scattered Clouds,90,2012-11-11 13:53:00
9:53 AM,80.1,54.0,40,30.23,10.0,East,16.1,24.2,N/A,,Scattered Clouds,90,2012-11-11 14:53:00
10:53 AM,81.0,57.9,45,30.23,10.0,East,15.0,25.3,N/A,,Scattered Clouds,80,2012-11-11 15:53:00
11:53 AM,80.1,59.0,48,30.22,10.0,East,15.0,-,N/A,,Mostly Cloudy,80,2012-11-11 16:53:00
12:53 PM,79.0,57.0,47,30.19,10.0,East,19.6,24.2,N/A,,Scattered Clouds,90,2012-11-11 17:53:00
1:53 PM,81.0,59.0,47,30.18,10.0,East,17.3,25.3,N/A,,Mostly Cloudy,90,2012-11-11 18:53:00
2:53 PM,80.1,60.1,50,30.18,10.0,East,16.1,-,N/A,,Scattered Clouds,90,2012-11-11 19:53:00
3:53 PM,79.0,57.9,48,30.17,10.0,East,18.4,23.0,N/A,,Scattered Clouds,80,2012-11-11 20:53:00
4:53 PM,78.1,55.9,46,30.17,10.0,East,13.8,21.9,N/A,,Partly Cloudy,90,2012-11-11 21:53:00
5:53 PM,75.9,57.9,54,30.18,10.0,East,12.7,-,N/A,,Partly Cloudy,80,2012-11-11 22:53:00
6:53 PM,75.9,60.1,58,30.19,10.0,East,17.3,21.9,N/A,,Scattered Clouds,90,2012-11-11 23:53:00
7:53 PM,77.0,59.0,54,30.20,10.0,East,15.0,24.2,N/A,,Scattered Clouds,80,2012-11-12 00:53:00
8:53 PM,75.9,62.1,62,30.20,10.0,East,18.4,-,N/A,,Scattered Clouds,90,2012-11-12 01:53:00
9:53 PM,73.9,64.0,71,30.20,10.0,ESE,13.8,-,0.00,,Mostly Cloudy,110,2012-11-12 02:53:00
10:53 PM,75.0,64.0,69,30.20,10.0,East,16.1,27.6,N/A,,Mostly Cloudy,90,2012-11-12 03:53:00
11:53 PM,75.9,63.0,64,30.18,10.0,ESE,19.6,28.8,0.00,,Scattered Clouds,110,2012-11-12 04:53:00